[[{"header":{"parameterUnit":"m.s-1","parameterCategory":1,"la1":30.2991,"la2":30.254,"lo1":-89.0895,"lo2":-89.0444,"dy":0.0017,"dx":0.0017,"nx":28,"ny":28,"refTime":"2025-01-01T09:00:00:Z","depth":0,"parameterNumber":2,"parameterNumberName":"U-component_of_WINDS"},"data":[0,0,0,0,0,0,0,0,0,0,0,0,0,0,0,0,0,0,0,0,0,0,0,0,0,0,0,0,0,0,0,0,0,0,0,0,0,0,0,0,0,0,0,0,0,0,0,0,0,0,0,0,0,0,0,0,0,0,-1.9491,-1.9492,0,-1.9589,-1.9591,-1.9592,-1.9502,-1.9498,-1.9495,-1.9491,-1.9597,-1.9603,-1.961,0,0,0,0,0,0,0,0,0,0,0,0,0,-1.9228,-1.9234,-1.949,-1.9492,-1.9493,-1.9589,-1.9591,-1.9592,-1.9503,-1.9498,-1.9494,-1.949,-1.9595,-1.9603,-1.961,0,0,0,0,0,0,0,0,0,0,0,0,0,-1.9336,-1.9235,-1.949,-1.946,-1.9458,-1.9589,-1.9591,-1.9592,-1.9504,-1.9498,-1.9493,-1.9487,-1.9593,-1.9602,-1.9611,-1.9779,0,0,-1.964,-1.9644,0,0,0,0,0,0,0,0,-1.933,-1.9346,-1.9463,-1.9462,-1.946,-1.9528,-1.9537,-1.9655,-1.9505,-1.9487,-1.9491,-1.9485,-1.9579,-1.9589,-1.962,-1.9784,-1.9788,-1.9641,-1.9646,-1.965,-1.9653,0,0,0,0,0,0,0,-1.9323,-1.9341,-1.953,-1.9465,-1.9463,-1.9443,-1.9452,-1.9559,-1.9563,-1.9488,-1.9481,-1.9494,-1.9577,-1.9611,-1.9622,-1.979,-1.964,-1.9649,-1.9654,-1.9658,-2.0097,-2.0102,0,0,0,0,0,0,-1.9318,-1.9336,-1.9527,-1.9533,-1.938,-1.9452,-1.9462,-1.9512,-1.9561,-1.9563,-1.9499,-1.9489,-1.9598,-1.9611,-1.9625,-1.9825,-1.965,-1.9659,-1.9664,-2.0091,-2.0098,-2.0105,0,0,0,0,0,0,-1.9313,-1.9336,-1.9523,-1.9433,-1.9455,-1.9462,-1.9519,-1.9517,-1.955,-1.9569,-1.957,-1.9532,-1.9594,-1.9612,-1.9741,-1.9828,-1.9663,-1.9672,-2.0084,-2.0093,-2.0101,-2.0227,0,0,0,0,0,0,-1.9306,-1.9335,-1.9398,-1.9435,-1.946,-1.9636,-1.9524,-1.9522,-1.9566,-1.9555,-1.9601,-1.9603,-1.9591,-1.9728,-1.975,-1.9838,-1.9679,-2.0076,-2.0088,-2.0098,-2.0215,-2.0239,-2.026,0,0,0,0,0,-1.9297,-1.943,-1.9401,-1.9425,-1.9538,-1.9641,-1.9656,-1.9638,-1.9573,-1.9638,-1.9649,-1.9602,-1.9814,-1.9741,-1.9766,-1.9858,-2.007,-2.0084,-2.0098,-2.0205,-2.0235,-2.026,0,0,0,0,0,0,-1.9405,-1.9434,-1.9403,-1.9552,-1.9595,-1.9626,-1.9706,-1.9669,-1.9732,-1.972,-1.9695,-1.9707,-1.9843,-1.9863,-1.9782,-2.0023,-1.9932,-1.9951,-2.0006,-2.0034,-2.0055,-2.0049,-1.9687,0,0,0,0,0,-1.9446,-1.9525,-1.9547,-1.9677,-1.9699,-1.9699,-1.9744,-1.9725,-1.977,-1.9788,-1.9809,-1.9855,-1.9932,-1.9983,-2.0055,-2.0217,-2.0226,-2.0292,-2.0314,-2.0332,-2.035,-2.0439,-2.0468,-2.0149,-2.0149,-2.0149,0,0,-1.9532,-1.9557,-1.961,-1.9699,-1.973,-1.9815,-1.9715,-1.9809,-1.9872,-1.9802,-1.9926,-1.9943,-1.9992,-2.0139,-2.0205,-2.016,-2.044,-2.035,-2.0364,-2.0372,-2.0456,-2.0486,-2.0513,-2.0158,-2.0157,-2.0155,0,0,-1.9732,-1.9759,-1.987,-1.9903,-1.995,-1.9949,-1.9976,-2.0013,-2.0021,-2.0144,-2.0094,-2.0168,-2.0301,-2.0339,-2.0375,-2.0589,-2.0548,-2.0613,-2.0731,-2.0817,-2.0842,-2.0864,-2.0942,-2.097,-2.063,-2.063,-2.063,0,-1.9834,-1.9958,-1.9932,-2.003,-2.0071,-2.0009,-2.0123,-2.0156,-2.0226,-2.0257,-2.0204,-2.037,-2.0399,-2.0554,-2.0606,-2.0636,-2.0668,-2.0609,-2.084,-2.0862,-2.0883,-2.0957,-2.0986,-2.0638,-2.0637,-2.0636,-2.0636,0,-2.0081,-2.0168,-2.0252,-2.0319,-2.037,-2.0475,-2.0467,-2.0521,-2.0498,-2.0503,-2.0629,-2.0661,-2.0739,-2.0774,-2.0753,-2.0926,-2.0897,-2.0843,-2.0752,-2.0921,-2.0991,-2.1019,-2.0649,-2.0646,-2.0644,-2.0642,0,0,-2.0355,-2.0405,-2.0437,-2.0467,-2.0514,-2.0582,-2.0684,-2.0758,-2.0806,-2.0856,-2.0942,-2.1055,-2.1005,-2.1047,-2.1029,-2.1105,-2.1274,-2.1042,-2.1042,-2.1086,-2.1469,-2.1511,-2.1544,-2.1246,-2.1251,-2.1255,-2.1465,0,-2.0559,-2.0735,-2.0715,-2.0885,-2.0965,-2.0907,-2.0997,-2.1036,-2.1043,-2.1114,-2.1121,-2.1202,-2.1129,-2.1154,-2.1226,-2.1238,-2.1351,-2.1222,-2.1329,-2.1333,-2.132,-2.158,-2.1625,-2.1822,-2.1492,-2.1497,-2.15,0,-2.0821,-2.0878,-2.1055,-2.109,-2.1123,-2.1204,-2.127,-2.1338,-2.1382,-2.1381,-2.1427,-2.1396,-2.15,-2.1405,-2.1549,-2.1462,-2.1504,-2.1516,-2.1523,-2.1535,-2.1428,-2.1601,-2.1884,-2.1914,-2.1542,-2.1539,-2.1536,0,-2.1005,-2.1127,-2.1249,-2.1276,-2.1319,-2.1377,-2.1398,-2.1436,-2.1482,-2.154,-2.157,-2.164,-2.168,-2.1735,-2.1724,-2.1655,-2.1872,-2.1775,-2.1877,-2.1877,-2.1927,-2.1925,-2.2224,-2.1951,-2.195,-2.1949,-2.1949,0,-2.1236,-2.1348,-2.1332,-2.1408,-2.1531,-2.1506,-2.1629,-2.1643,-2.1677,-2.1755,-2.1709,-2.1783,-2.1763,-2.1838,-2.183,-2.1951,-2.1969,-2.1973,-2.197,-2.1979,-2.1979,-2.2008,-2.1995,-2.1957,-2.1956,-2.1954,-2.1953,0,-2.1465,-2.1458,-2.1588,-2.1617,-2.1627,-2.1717,-2.1743,-2.1815,-2.1817,-2.1916,-2.1938,-2.1942,-2.2027,-2.2021,-2.2117,-2.2111,-2.2262,-2.2242,-2.2248,-2.2244,-2.2346,-2.2338,-2.2676,-2.272,-2.2417,-2.242,-2.2422,0,-2.1614,-2.1698,-2.1736,-2.1784,-2.1809,-2.1887,-2.1933,-2.1912,-2.1962,-2.2018,-2.2083,-2.2163,-2.2226,-2.2365,-2.2377,-2.245,-2.2433,-2.2547,-2.2444,-2.245,-2.2437,-2.2434,-2.2443,-2.2568,-2.2571,-2.2574,-2.2576,0,-2.188,-2.1872,-2.194,-2.2007,-2.2063,-2.2115,-2.2162,-2.2204,-2.2188,-2.2247,-2.2332,-2.2381,-2.2478,-2.2559,-2.2628,-2.2651,-2.2613,-2.2608,-2.2636,-2.2647,-2.2647,-2.265,-2.2305,-2.2601,-2.2599,-2.2597,-2.2595,-2.2594,-2.2075,-2.2147,-2.2185,-2.2262,-2.2295,-2.234,-2.2409,-2.2418,-2.2489,-2.2565,-2.2548,-2.2645,-2.2686,-2.2775,-2.2805,-2.2881,-2.284,-2.288,-2.289,-2.2901,-2.2914,-2.2633,-2.2893,-2.2892,-2.2892,-2.2891,-2.289,0,-2.234,-2.2361,-2.2432,-2.2499,-2.256,-2.2515,-2.2565,-2.2619,-2.2704,-2.2745,-2.2808,-2.2906,-2.2984,-2.3002,-2.3076,-2.3134,-2.3118,-2.3155,-2.3151,-2.3158,-2.2945,-2.2914,-2.3166,-2.3166,-2.3166,-2.3166,-2.3166,-2.3166,-2.2486,-2.2606,-2.2603,-2.2739,-2.2759,-2.2852,-2.2885,-2.2927,-2.2959,-2.3071,-2.3135,-2.3145,-2.3177,-2.3254,-2.3323,-2.3327,-2.3357,-2.3402,-2.3398,-2.32,-2.3172,-2.3146,-2.3118,-2.3408,-2.3408,-2.3605,-2.3607,-2.3608]},{"header":{"parameterUnit":"m.s-1","parameterCategory":1,"la1":30.2991,"la2":30.254,"lo1":-89.0895,"lo2":-89.0444,"dy":0.0017,"dx":0.0017,"nx":28,"ny":28,"refTime":"2025-01-01T09:00:00:Z","depth":0,"parameterNumber":3,"parameterNumberName":"V-component_of_WINDS"},"data":[0,0,0,0,0,0,0,0,0,0,0,0,0,0,0,0,0,0,0,0,0,0,0,0,0,0,0,0,0,0,0,0,0,0,0,0,0,0,0,0,0,0,0,0,0,0,0,0,0,0,0,0,0,0,0,0,0,0,-3.6654,-3.6655,0,-3.6715,-3.6716,-3.6716,-3.6659,-3.6657,-3.6654,-3.6652,-3.6712,-3.6716,-3.6719,0,0,0,0,0,0,0,0,0,0,0,0,0,-3.6485,-3.6488,-3.6654,-3.6655,-3.6656,-3.6715,-3.6716,-3.6717,-3.6659,-3.6657,-3.6654,-3.6651,-3.6711,-3.6715,-3.672,0,0,0,0,0,0,0,0,0,0,0,0,0,-3.6553,-3.649,-3.6654,-3.6634,-3.6633,-3.6715,-3.6716,-3.6717,-3.666,-3.6657,-3.6653,-3.665,-3.6709,-3.6715,-3.672,-3.6824,0,0,-3.6737,-3.674,0,0,0,0,0,0,0,0,-3.655,-3.656,-3.6637,-3.6636,-3.6635,-3.6676,-3.6678,-3.6753,-3.6661,-3.665,-3.6652,-3.6648,-3.6703,-3.6709,-3.6727,-3.6826,-3.6829,-3.6738,-3.6741,-3.6744,-3.6745,0,0,0,0,0,0,0,-3.6545,-3.6557,-3.6678,-3.6638,-3.6637,-3.6621,-3.6627,-3.6692,-3.6695,-3.6651,-3.6647,-3.6655,-3.6701,-3.6722,-3.6728,-3.683,-3.6738,-3.6743,-3.6746,-3.6748,-3.7014,-3.7018,0,0,0,0,0,0,-3.6543,-3.6553,-3.6676,-3.668,-3.6583,-3.6627,-3.6634,-3.6666,-3.6694,-3.6695,-3.6658,-3.6652,-3.6714,-3.6722,-3.673,-3.6852,-3.6744,-3.6749,-3.6752,-3.7011,-3.7015,-3.7019,0,0,0,0,0,0,-3.6539,-3.6554,-3.6674,-3.6616,-3.663,-3.6634,-3.6671,-3.6669,-3.669,-3.6699,-3.6699,-3.6678,-3.6712,-3.6722,-3.6801,-3.6853,-3.6751,-3.6756,-3.7006,-3.7012,-3.7017,-3.7097,0,0,0,0,0,0,-3.6535,-3.6553,-3.6594,-3.6617,-3.6633,-3.6744,-3.6674,-3.6673,-3.67,-3.6693,-3.6719,-3.672,-3.671,-3.6793,-3.6806,-3.6859,-3.6761,-3.7002,-3.7009,-3.7015,-3.7089,-3.7104,-3.7117,0,0,0,0,0,-3.6529,-3.6613,-3.6596,-3.6611,-3.6684,-3.6748,-3.6757,-3.6745,-3.6705,-3.6744,-3.675,-3.6719,-3.6845,-3.6801,-3.6816,-3.6871,-3.6998,-3.7007,-3.7015,-3.7083,-3.7101,-3.7117,0,0,0,0,0,0,-3.6596,-3.6616,-3.6597,-3.6692,-3.6719,-3.6738,-3.6788,-3.6764,-3.6802,-3.6794,-3.6777,-3.6783,-3.6865,-3.6876,-3.6826,-3.6972,-3.6915,-3.6927,-3.6962,-3.6979,-3.6993,-3.6988,-3.6765,0,0,0,0,0,-3.6622,-3.6673,-3.6688,-3.677,-3.6784,-3.6784,-3.6811,-3.68,-3.6826,-3.6837,-3.6848,-3.6874,-3.692,-3.695,-3.6992,-3.709,-3.7094,-3.7136,-3.7149,-3.7161,-3.7171,-3.7222,-3.724,-3.7047,-3.7047,-3.7046,0,0,-3.6675,-3.6693,-3.6726,-3.6783,-3.6803,-3.6855,-3.6794,-3.6852,-3.689,-3.6845,-3.692,-3.6929,-3.6957,-3.7045,-3.7084,-3.7056,-3.7225,-3.7171,-3.718,-3.7184,-3.7232,-3.7251,-3.7267,-3.7052,-3.7051,-3.705,0,0,-3.68,-3.6819,-3.6889,-3.6909,-3.6939,-3.6938,-3.6955,-3.6978,-3.6982,-3.7057,-3.7024,-3.7069,-3.7148,-3.7168,-3.7189,-3.732,-3.7293,-3.7335,-3.7407,-3.7457,-3.7472,-3.7485,-3.7531,-3.7548,-3.7345,-3.7345,-3.7345,0,-3.6862,-3.6941,-3.6927,-3.6988,-3.7013,-3.6976,-3.7045,-3.7066,-3.7108,-3.7126,-3.7094,-3.7191,-3.7207,-3.7299,-3.7331,-3.735,-3.7367,-3.7332,-3.7471,-3.7484,-3.7497,-3.754,-3.7557,-3.735,-3.7349,-3.7349,-3.7348,0,-3.7016,-3.7071,-3.7123,-3.7166,-3.7197,-3.7262,-3.7257,-3.729,-3.7275,-3.7277,-3.7352,-3.7371,-3.7415,-3.7436,-3.7423,-3.7526,-3.7507,-3.7474,-3.7416,-3.752,-3.756,-3.7577,-3.7357,-3.7355,-3.7354,-3.7352,0,0,-3.7185,-3.7218,-3.7237,-3.7255,-3.7285,-3.7327,-3.7389,-3.7433,-3.7462,-3.7492,-3.7542,-3.761,-3.7578,-3.7602,-3.759,-3.7634,-3.7735,-3.7595,-3.7595,-3.7619,-3.7849,-3.7873,-3.7893,-3.7717,-3.772,-3.7723,-3.7846,0,-3.7309,-3.7419,-3.7407,-3.7511,-3.7561,-3.7525,-3.7579,-3.7603,-3.7606,-3.7647,-3.765,-3.7698,-3.7654,-3.7667,-3.771,-3.7714,-3.7781,-3.7705,-3.7763,-3.7765,-3.7757,-3.7914,-3.7941,-3.8056,-3.7862,-3.7864,-3.7866,0,-3.7469,-3.7506,-3.7614,-3.7635,-3.7656,-3.7705,-3.7744,-3.7784,-3.781,-3.7809,-3.7835,-3.7815,-3.7876,-3.7818,-3.7901,-3.785,-3.7872,-3.7878,-3.7882,-3.7887,-3.7822,-3.7922,-3.8093,-3.811,-3.7891,-3.7889,-3.7887,0,-3.758,-3.7656,-3.773,-3.7747,-3.7774,-3.7809,-3.7821,-3.7843,-3.787,-3.7904,-3.7921,-3.7961,-3.7983,-3.8014,-3.8005,-3.7964,-3.8089,-3.8031,-3.8089,-3.8089,-3.8117,-3.8115,-3.8293,-3.8133,-3.8133,-3.8133,-3.8132,0,-3.772,-3.7788,-3.778,-3.7826,-3.79,-3.7886,-3.7959,-3.7967,-3.7987,-3.8032,-3.8004,-3.8047,-3.8033,-3.8075,-3.8068,-3.8137,-3.8147,-3.8147,-3.8144,-3.8149,-3.8149,-3.8163,-3.8155,-3.8137,-3.8136,-3.8135,-3.8135,0,-3.7857,-3.7855,-3.7933,-3.7952,-3.7958,-3.8012,-3.8027,-3.8069,-3.807,-3.8128,-3.8141,-3.8142,-3.8189,-3.8183,-3.8237,-3.8232,-3.8317,-3.8305,-3.8309,-3.8306,-3.8364,-3.8359,-3.8557,-3.8582,-3.8407,-3.8409,-3.841,0,-3.7946,-3.7997,-3.8021,-3.805,-3.8065,-3.8112,-3.8139,-3.8127,-3.8156,-3.8188,-3.8226,-3.8272,-3.8307,-3.8385,-3.8389,-3.843,-3.8418,-3.8484,-3.8423,-3.8426,-3.8417,-3.8414,-3.8418,-3.8496,-3.8498,-3.85,-3.8501,0,-3.8104,-3.81,-3.8141,-3.8182,-3.8215,-3.8246,-3.8274,-3.8299,-3.8289,-3.8323,-3.8372,-3.84,-3.8454,-3.8499,-3.8536,-3.8548,-3.8523,-3.852,-3.8536,-3.8541,-3.8541,-3.8541,-3.8341,-3.8516,-3.8514,-3.8513,-3.8512,-3.8512,-3.8219,-3.8262,-3.8286,-3.8332,-3.8352,-3.8378,-3.8419,-3.8424,-3.8465,-3.8509,-3.8499,-3.8553,-3.8575,-3.8623,-3.8639,-3.868,-3.8656,-3.8679,-3.8684,-3.869,-3.8696,-3.8535,-3.8687,-3.8687,-3.8686,-3.8686,-3.8686,0,-3.8375,-3.8388,-3.8431,-3.8471,-3.8507,-3.8481,-3.851,-3.8541,-3.859,-3.8614,-3.8649,-3.8704,-3.8747,-3.8755,-3.8796,-3.8827,-3.8817,-3.8838,-3.8835,-3.8838,-3.8716,-3.8698,-3.8846,-3.8846,-3.8846,-3.8846,-3.8846,-3.8846,-3.846,-3.8531,-3.853,-3.8611,-3.8623,-3.8677,-3.8696,-3.872,-3.8738,-3.8801,-3.8837,-3.8842,-3.8859,-3.89,-3.8938,-3.8939,-3.8954,-3.898,-3.8977,-3.8863,-3.8847,-3.8832,-3.8815,-3.8984,-3.8984,-3.9095,-3.9096,-3.9097]}]]